This is the latest recevied weather packets stored in our database for station/object DC4XK-10. If no packets are shown the sender has not sent any weather packets the latest 10 day(s).
| Time | Temp. | Humidity | Pressure | Rain* | Wind** | Luminosity | Snow |
|---|---|---|---|---|---|---|---|
| 1777860531 | 14.44° C | 97% | 1007.2 hPa | 0 mm | 1.79 m/s, 240° | - | - |
| 1777859931 | 14.44° C | 97% | 1007.3 hPa | 0 mm | 2.24 m/s, 265° | - | - |
| 1777859331 | 14.44° C | 97% | 1007.5 hPa | 0 mm | 0.89 m/s, 286° | - | - |
| 1777858730 | 14.44° C | 98% | 1007.4 hPa | 0 mm | 1.34 m/s, 281° | - | - |
| 1777858132 | 14.44° C | 98% | 1007.8 hPa | 0 mm | 1.79 m/s, 287° | - | - |
| 1777857531 | 14.44° C | 97% | 1007.5 hPa | 0 mm | 1.34 m/s, 301° | - | - |
| 1777856930 | 14.44° C | 98% | 1007.4 hPa | 0 mm | 0.89 m/s, 317° | - | - |
| 1777856333 | 14.44° C | 98% | 1007.4 hPa | 0 mm | 0.45 m/s, 260° | - | - |
| 1777855731 | 14.44° C | 98% | 1007.4 hPa | 0 mm | 0 m/s | - | - |
| 1777855130 | 14.44° C | 98% | 1007.1 hPa | 0 mm | 0.45 m/s, 238° | - | - |
| 1777854534 | 14.44° C | 98% | 1007.1 hPa | 0 mm | 0.89 m/s, 218° | - | - |
| 1777853931 | 14.44° C | 98% | 1007.2 hPa | 0 mm | 0 m/s | - | - |
| 1777853331 | 14.44° C | 98% | 1007.4 hPa | 0 mm | 0 m/s | - | - |
| 1777852731 | 14.44° C | 98% | 1007.3 hPa | 0 mm | 1.79 m/s, 209° | - | - |
| 1777852131 | 14.44° C | 99% | 1007.4 hPa | 0 mm | 0 m/s | - | - |
| 1777851531 | 14.44° C | 99% | 1007.2 hPa | 0 mm | 0.45 m/s, 163° | - | - |
| 1777850931 | 14.44° C | 99% | 1007.4 hPa | 0 mm | 0.89 m/s, 253° | - | - |
| 1777850331 | 14.44° C | 99% | 1007.4 hPa | 0 mm | 0.45 m/s, 271° | - | - |
| 1777849731 | 14.44° C | 99% | 1007.5 hPa | 0 mm | 1.34 m/s, 235° | - | - |
| 1777849130 | 14.44° C | 99% | 1007.5 hPa | 0 mm | 0.89 m/s, 272° | - | - |
| 1777848530 | 14.44° C | 99% | 1007.5 hPa | 0 mm | 0 m/s | - | - |
| 1777847931 | 14.44° C | 99% | 1007.6 hPa | 0 mm | 0 m/s | - | - |
| 1777847331 | 14.44° C | 99% | 1007.4 hPa | 0 mm | 0.45 m/s, 218° | - | - |
| 1777846730 | 15° C | 99% | 1007.6 hPa | 0 mm | 0.45 m/s, 160° | - | - |
| 1777846131 | 15° C | 98% | 1007.5 hPa | 0 mm | 0.89 m/s, 257° | - | - |
* Rain latest hour (hover to see other rain measurements)
** Current wind speed in m/s (hover to see current wind gust speed)